Home > Weather > Kløfta > Past weeks

Flag for Norway Past Weather in Kløfta, Norway — Yesterday and Last 2 Weeks

Now
54 °F

Cool.


Feels Like: 54 °F
Forecast: 56 / 67 °F
Wind: No wind

Location: Oslo Gardermoen Airport

Current Time: Jul 27, 2016 at 7:50:17 AM

Latest Report: Jul 27, 2016 at 6:50 AM


Visibility: 0 mi

Pressure: 29.95 "Hg

Humidity: 94%

Dew Point: 52 °F

Location of KløftaLocation

Past Weather in Kløfta — Graph

°F

Kløfta Temperature Yesterday

Maximum temperature yesterday: 68 °F (at 12:20 PM)
Minimum temperature yesterday: 57 °F (at 11:50 PM)
Average temperature yesterday: 63 °F

High & Low Weather Summary for the Past Weeks

 TemperatureHumidityPressure
High79 °F (Jul 21, 4:50 PM)100% (Jul 13, 1:20 AM)30.12 "Hg (Jul 13, 1:20 AM)
Low46 °F (Jul 19, 4:20 AM)35% (Jul 16, 5:50 PM)29.47 "Hg (Jul 12, 6:20 AM)
Average63 °F68%29.92 "Hg
* Reported Jul 12 6:20 AM — Jul 27 6:20 AM, Kløfta, Weather by CustomWeather, © 2016

Note: Actual official high and low records may vary slightly from our data, if they occured in-between our weather recording intervals... More about our weather records

Advertising

Kløfta Weather History for the Previous 24 Hours

Scroll right to see more
 ConditionsComfort  
Time TempWeatherWind HumidityBarometerVisibility
6:20 AM
Wed, Jul 27
54 °FFog.1 mph94%29.95 "Hg0 mi
5:50 AM54 °FFog.2 mph94%29.95 "Hg1 mi
5:20 AM54 °FCool.1 mph94%29.95 "Hg0 mi
4:50 AM54 °FCool.1 mph94%29.95 "Hg1 mi
4:20 AM54 °FCool.No wind94%29.95 "Hg2 mi
3:50 AM54 °FCool.2 mph94%29.95 "Hg4 mi
3:20 AM52 °FCool.2 mph94%29.95 "Hg1 mi
2:50 AM54 °FCool.No wind94%29.92 "Hg3 mi
2:20 AM54 °FPassing clouds.No wind94%29.92 "HgN/A
1:50 AM54 °FPassing clouds.2 mph94%29.92 "HgN/A
1:20 AM54 °FPassing clouds.2 mph94%29.92 "HgN/A
12:50 AM55 °FPassing clouds.No wind88%29.92 "HgN/A
12:20 AM57 °FPassing clouds.No wind94%29.92 "HgN/A
11:50 PM
Tue, Jul 26
57 °FPassing clouds.No wind94%29.92 "HgN/A
11:20 PM59 °FPassing clouds.1 mph88%29.92 "HgN/A
10:50 PM59 °FSunny.1 mph88%29.92 "Hg10 mi
10:20 PM59 °FSunny.6 mph82%29.92 "Hg10 mi
9:50 PM61 °FPassing clouds.3 mph83%29.92 "HgN/A
9:20 PM61 °FPassing clouds.5 mph88%29.92 "HgN/A
8:50 PM63 °FSunny.8 mph77%29.92 "Hg10 mi
8:20 PM63 °FSunny.8 mph77%29.89 "Hg10 mi
7:50 PM61 °FThunderstorms. Broken clouds.9 mph77%29.89 "HgN/A
7:20 PM64 °FThunderstorms. Scattered clouds.9 mph68%29.92 "HgN/A
6:50 PM64 °FScattered showers. Scattered clouds.14 mph68%29.89 "HgN/A
6:20 PM66 °FScattered showers. Scattered clouds.13 mph73%29.89 "HgN/A
5:50 PM64 °FPassing clouds.8 mph78%29.89 "HgN/A
5:20 PM63 °FRain showers. Broken clouds.3 mph77%29.89 "HgN/A
4:50 PM64 °FScattered showers. Broken clouds.7 mph68%29.89 "HgN/A
4:20 PM63 °FThundershowers. Broken clouds.5 mph73%29.89 "HgN/A
3:50 PM59 °FCool.9 mph72%29.89 "HgN/A
3:20 PM68 °FScattered showers. Scattered clouds.18 mph60%29.86 "HgN/A
2:50 PM66 °FScattered clouds.20 mph60%29.86 "HgN/A
2:20 PM68 °FScattered clouds.18 mph56%29.86 "HgN/A
1:50 PM68 °FScattered clouds.17 mph60%29.86 "HgN/A
1:20 PM68 °FScattered clouds.15 mph60%29.89 "HgN/A
12:50 PM66 °FBroken clouds.15 mph60%29.89 "HgN/A
12:20 PM68 °FBroken clouds.16 mph64%29.89 "HgN/A
11:50 AM66 °FBroken clouds.16 mph64%29.89 "HgN/A
11:20 AM66 °FBroken clouds.17 mph64%29.89 "HgN/A
10:50 AM66 °FBroken clouds.17 mph73%29.89 "HgN/A
10:20 AM66 °FBroken clouds.13 mph73%29.89 "HgN/A
9:50 AM64 °FBroken clouds.13 mph83%29.89 "HgN/A
9:20 AM63 °FBroken clouds.10 mph88%29.89 "HgN/A
8:50 AM61 °FMore clouds than sun.8 mph94%29.89 "Hg6 mi
8:20 AM61 °FSprinkles. Low clouds.7 mph94%29.89 "Hg6 mi
7:50 AM61 °FSprinkles. More clouds than sun.6 mph94%29.89 "HgN/A
7:20 AM61 °FSprinkles. More clouds than sun.5 mph88%29.89 "HgN/A
Weather by CustomWeather, © 2016

See weather overviewHow to use our weather pages